Powrót do katalogu

STARLINK-36735

AktywnyŁącznośćVLEO
NORAD 68976·PAYLOAD·🇺🇸 United States

Wystrzelony May 1, 2026 z Cape Canaveral Space Force Station

Loading…

Następne Przeloty (najbliższe 24 godziny)

TLE

ŚwieżeSource: CelesTrak SupGP

Epoka: Sep 15, 2026, 03:12 UTC

1 68976C 26099AB  26258.13381944 -.00001677  00000+0 -49537-4 0  2580
2 68976  53.1562 100.5817 0001247  95.9886 297.7914 15.34392591    13

Śledź STARLINK-36735 w czasie rzeczywistym z AllMySat

Download on the App Store